This demonstration page uses our WeatherBlox Daily Observations layout. Learn more.

39.92423, -83.80882

Hourly Observations for May 31, 2015

Temp ( °F °C ) Dew Point ( °F °C ) Humidity (%) Winds ( mph kmh ) Pressure ( in mb ) Visibility ( mi km ) Precip ( " mm )
12:56 am 00:56 Mostly Cloudy with Mist and Fog 67 19.4 67 19.4 100 100 NE 6 9 29.97 1015 5 8.0467 0 0
1:56 am 01:56 Mostly Cloudy 68 20 68 20 100 100 NNW 7 11 29.96 1015 7 11.26538 0 0
2:30 am 02:30 Mostly Cloudy with Mist and Fog 66 19 66 19 100 100 NNE 5 7 29.97 1015 6 9.65604 0 0
2:45 am 02:45 Mostly Cloudy with Mist and Fog 66 19 66 19 100 100 NE 6 9 29.97 1015 5 8.0467 0 0
2:56 am 02:56 Mostly Cloudy with Mist and Fog 67 19.4 67 19.4 100 100 NE 6 9 29.96 1015 5 8.0467 0 0
3:08 am 03:08 Mostly Cloudy with Mist and Fog 66 19 66 19 100 100 NE 7 11 29.94 1014 5 8.0467 0 0
3:56 am 03:56 Mostly Clear with Mist and Fog 66 18.8 66 18.8 100 100 ENE 6 9 29.94 1014 5 8.0467 0 0
4:56 am 04:56 Mostly Cloudy with Mist and Fog 66 18.8 66 18.8 100 100 E 7 11 29.93 1014 6 9.65604 0 0
5:56 am 05:56 Mostly Cloudy with Mist and Fog 66 18.8 66 18.8 100 100 E 8 13 29.93 1014 5 8.0467 0 0
6:10 am 06:10 Mostly Cloudy with Mist and Fog 66 19 66 19 100 100 ESE 5 7 29.94 1014 5 8.0467 0 0
6:23 am 06:23 Mostly Cloudy with Mist and Fog 66 19 66 19 100 100 ESE 7 11 29.94 1014 6 9.65604 0 0
6:56 am 06:56 Mostly Cloudy 67 19.4 67 19.4 100 100 SSE 8 13 29.94 1014 7 11.26538 0 0
7:22 am 07:22 Mostly Cloudy 70 21 66 19 88 88 S 8 13 29.91 1013 8 12.87472 0 0
7:56 am 07:56 Mostly Cloudy 70 21.1 67 19.4 90 90 S 9 15 29.93 1014 8 12.87472 0 0
8:56 am 08:56 Mostly Cloudy 70 21.1 67 19.4 90 90 S 10 17 29.93 1014 8 12.87472 0 0
9:56 am 09:56 Cloudy 71 21.6 67 19.4 87 87 S 10 17 29.93 1014 8 12.87472 0 0
10:28 am 10:28 Cloudy with Mist and Fog 70 21 68 20 94 94 SW 14 22 29.94 1014 1.75 2.816345 0 0
10:32 am 10:32 Cloudy with Light Rain 70 21 68 20 94 94 SW 12 19 29.94 1014 1.25 2.011675 0 0.0254
10:38 am 10:38 Cloudy with Mist and Fog 70 21 68 20 94 94 SSW 14 22 29.94 1014 1.5 2.41401 0.01 0.254
10:42 am 10:42 Cloudy with Light Rain 70 21 70 21 100 100 SW 13 20 29.94 1014 2.5 4.02335 0.01 0.254
10:45 am 10:45 Cloudy with Mist and Fog 70 21 70 21 100 100 SW 13 20 29.94 1014 6 9.65604 0.01 0.254
10:56 am 10:56 Cloudy 72 22.2 70 21.1 94 94 SSW 13 20 29.94 1014 8 12.87472 0.01 0.254
11:56 am 11:56 Cloudy 73 22.7 68 20 85 85 SW 17 28 29.95 1014 9 14.48406 0 0
12:56 pm 12:56 Mostly Cloudy 71 21.6 67 19.4 87 87 WSW 17 28 29.97 1015 9 14.48406 0 0
1:12 pm 13:12 Mostly Cloudy 70 21 66 19 88 88 W 20 31 29.97 1015 7 11.26538 0 0
1:56 pm 13:56 Cloudy 67 19.4 63 17.2 87 87 WSW 15 24 29.99 1016 8 12.87472 0 0
2:56 pm 14:56 Cloudy 64 17.7 62 16.6 93 93 WSW 14 22 30.01 1016 7 11.26538 0 0
3:13 pm 15:13 Cloudy 66 19 61 16 83 83 WSW 16 26 30 1016 9 14.48406 0 0
3:43 pm 15:43 Cloudy 64 18 61 16 88 88 W 12 19 30 1016 8 12.87472 0 0
3:56 pm 15:56 Cloudy 63 17.2 60 15.5 90 90 WNW 13 20 30.02 1017 8 12.87472 0 0
4:32 pm 16:32 Cloudy 61 16 59 15 94 94 NNW 12 19 30.03 1017 7 11.26538 0 0
4:56 pm 16:56 Cloudy 60 15.5 58 14.4 93 93 NW 13 20 30.04 1017 7 11.26538 0 0
5:44 pm 17:44 Cloudy 61 16 55 13 83 83 NNW 13 20 30.06 1018 8 12.87472 0 0
5:56 pm 17:56 Cloudy 60 15.5 56 13.3 87 87 NW 10 17 30.05 1018 9 14.48406 0 0
6:56 pm 18:56 Cloudy 57 13.8 54 12.2 90 90 N 13 20 30.07 1018 7 11.26538 0 0
7:47 pm 19:47 Cloudy with Mist and Fog 55 13 54 12 94 94 N 12 19 30.09 1019 5 8.0467 0 0
7:56 pm 19:56 Cloudy 55 12.7 53 11.6 93 93 N 13 20 30.09 1019 7 11.26538 0 0
8:08 pm 20:08 Cloudy 55 13 52 11 88 88 N 10 17 30.09 1019 7 11.26538 0 0
8:49 pm 20:49 Cloudy 55 13 50 10 82 82 N 14 22 30.12 1020 8 12.87472 0 0
8:56 pm 20:56 Cloudy 55 12.7 50 10 84 84 N 14 22 30.1 1019 8 12.87472 0 0
9:40 pm 21:40 Cloudy 54 12 50 10 88 88 N 13 20 30.12 1020 9 14.48406 0 0
9:56 pm 21:56 Cloudy 54 12.2 50 10 87 87 N 13 20 30.11 1020 9 14.48406 0 0
10:56 pm 22:56 Cloudy 53 11.6 50 10 90 90 NNE 12 19 30.14 1021 8 12.87472 0 0
11:30 pm 23:30 Cloudy with Mist and Fog 52 11 52 11 100 100 NNE 10 17 30.18 1022 5 8.0467 0 0
11:42 pm 23:42 Cloudy 52 11 50 10 94 94 NNE 10 17 30.18 1022 8 12.87472 0 0
11:56 pm 23:56 Cloudy with Mist and Fog 52 11.1 50 10 93 93 NNE 10 17 30.15 1021 5 8.0467 0 0

Powered by AerisWeather